Time,TemperatureF,DewpointF,PressureIn,WindDirection,WindDirectionDegrees,WindSpeedMPH,WindSpeedGustMPH,Humidity,HourlyPrecipIn,Conditions,Clouds,dailyrainin,SolarRadiationWatts/m^2,SoftwareType,DateUTC
2013-08-10 00:00:00,57.9,54.4,30.03,NW,313,0.0,1.0,88,0.00,,---,0.00,0.00,VWS V14.01,2013-08-10 05:00:00,
2013-08-10 00:01:00,57.8,54.3,30.03,NW,313,0.0,0.0,88,0.00,,---,0.00,0.00,VWS V14.01,2013-08-10 05:01:00,
2013-08-10 00:06:00,57.7,54.2,30.03,NW,313,0.0,0.0,88,0.00,,---,0.00,0.00,VWS V14.01,2013-08-10 05:06:00,
2013-08-10 00:11:00,57.6,54.1,30.03,NW,313,0.0,0.0,88,0.00,,---,0.00,0.00,VWS V14.01,2013-08-10 05:11:00,
2013-08-10 00:16:00,57.6,54.4,30.03,NW,313,0.0,0.0,89,0.00,,---,0.00,0.00,VWS V14.01,2013-08-10 05:16:00,
2013-08-10 00:21:00,57.5,54.3,30.03,NW,313,0.0,0.0,89,0.00,,---,0.00,0.00,VWS V14.01,2013-08-10 05:21:00,
2013-08-10 00:26:00,57.4,54.2,30.03,NW,313,0.0,0.0,89,0.00,,---,0.00,0.00,VWS V14.01,2013-08-10 05:26:00,
2013-08-10 00:31:00,57.3,54.1,30.04,NW,313,0.0,0.0,89,0.00,,---,0.00,0.00,VWS V14.01,2013-08-10 05:31:00,
2013-08-10 00:36:00,57.3,54.1,30.04,NW,313,0.0,0.0,89,0.00,,---,0.00,0.00,VWS V14.01,2013-08-10 05:36:00,
2013-08-10 00:41:00,57.2,54.0,30.04,NW,313,0.0,0.0,89,0.00,,---,0.00,0.00,VWS V14.01,2013-08-10 05:41:00,
2013-08-10 00:46:00,57.1,53.9,30.04,NW,313,0.0,0.0,89,0.00,,---,0.00,0.00,VWS V14.01,2013-08-10 05:46:00,
2013-08-10 00:51:00,57.0,53.8,30.04,NW,313,0.0,0.0,89,0.00,,---,0.00,0.00,VWS V14.01,2013-08-10 05:51:00,
2013-08-10 00:56:00,56.9,53.7,30.04,NW,313,0.0,0.0,89,0.00,,---,0.00,0.00,VWS V14.01,2013-08-10 05:56:00,
2013-08-10 01:00:00,56.8,53.6,30.04,NW,313,0.0,0.0,89,0.00,,---,0.00,0.00,VWS V14.01,2013-08-10 06:00:00,
2013-08-10 01:01:00,56.7,53.5,30.04,NW,313,0.0,0.0,89,0.00,,---,0.00,0.00,VWS V14.01,2013-08-10 06:01:00,
2013-08-10 01:06:00,56.6,53.4,30.04,NW,313,0.0,0.0,89,0.00,,---,0.00,0.00,VWS V14.01,2013-08-10 06:06:00,
2013-08-10 01:11:00,56.4,53.2,30.04,NW,313,0.0,0.0,89,0.00,,---,0.00,0.00,VWS V14.01,2013-08-10 06:11:00,
2013-08-10 01:16:00,56.2,53.0,30.05,NW,313,0.0,0.0,89,0.00,,---,0.00,0.00,VWS V14.01,2013-08-10 06:16:00,
2013-08-10 01:21:00,56.0,52.8,30.05,NW,313,0.0,0.0,89,0.00,,---,0.00,0.00,VWS V14.01,2013-08-10 06:21:00,
2013-08-10 01:26:00,55.8,52.6,30.05,NW,313,0.0,0.0,89,0.00,,---,0.00,0.00,VWS V14.01,2013-08-10 06:26:00,
2013-08-10 01:31:00,55.7,52.5,30.05,NW,313,0.0,0.0,89,0.00,,---,0.00,0.00,VWS V14.01,2013-08-10 06:31:00,
2013-08-10 01:36:00,55.5,52.3,30.05,NW,313,0.0,0.0,89,0.00,,---,0.00,0.00,VWS V14.01,2013-08-10 06:36:00,
2013-08-10 01:41:00,55.4,52.5,30.05,NW,313,0.0,0.0,90,0.00,,---,0.00,0.00,VWS V14.01,2013-08-10 06:41:00,
2013-08-10 01:46:00,55.3,52.1,30.05,NW,313,0.0,0.0,89,0.00,,---,0.00,0.00,VWS V14.01,2013-08-10 06:46:00,
2013-08-10 01:51:00,55.2,52.3,30.05,NW,313,0.0,0.0,90,0.00,,---,0.00,0.00,VWS V14.01,2013-08-10 06:51:00,
2013-08-10 01:56:00,55.1,52.2,30.05,NW,313,0.0,0.0,90,0.00,,---,0.00,0.00,VWS V14.01,2013-08-10 06:56:00,
2013-08-10 02:00:00,55.0,52.1,30.05,NW,313,0.0,0.0,90,0.00,,---,0.00,0.00,VWS V14.01,2013-08-10 07:00:00,
2013-08-10 02:01:00,55.0,52.1,30.05,NW,313,0.0,0.0,90,0.00,,---,0.00,0.00,VWS V14.01,2013-08-10 07:01:00,
2013-08-10 02:06:00,54.8,51.9,30.05,NW,313,0.0,0.0,90,0.00,,---,0.00,0.00,VWS V14.01,2013-08-10 07:06:00,
2013-08-10 02:11:00,54.7,51.8,30.05,NW,313,0.0,0.0,90,0.00,,---,0.00,0.00,VWS V14.01,2013-08-10 07:11:00,
2013-08-10 02:16:00,54.6,51.7,30.05,NW,313,0.0,0.0,90,0.00,,---,0.00,0.00,VWS V14.01,2013-08-10 07:16:00,
2013-08-10 02:21:00,54.4,51.5,30.05,NW,313,0.0,0.0,90,0.00,,---,0.00,0.00,VWS V14.01,2013-08-10 07:21:00,
2013-08-10 02:26:00,54.3,51.4,30.06,NW,313,0.0,0.0,90,0.00,,---,0.00,0.00,VWS V14.01,2013-08-10 07:26:00,
2013-08-10 02:31:00,54.2,51.3,30.06,NW,313,0.0,0.0,90,0.00,,---,0.00,0.00,VWS V14.01,2013-08-10 07:31:00,
2013-08-10 02:36:00,54.1,51.2,30.06,NW,313,0.0,0.0,90,0.00,,---,0.00,0.00,VWS V14.01,2013-08-10 07:36:00,
2013-08-10 02:41:00,54.0,51.4,30.06,NW,313,0.0,0.0,91,0.00,,---,0.00,0.00,VWS V14.01,2013-08-10 07:41:00,
2013-08-10 02:46:00,53.9,51.3,30.06,NW,313,0.0,0.0,91,0.00,,---,0.00,0.00,VWS V14.01,2013-08-10 07:46:00,
2013-08-10 02:51:00,53.8,51.2,30.06,NW,313,0.0,0.0,91,0.00,,---,0.00,0.00,VWS V14.01,2013-08-10 07:51:00,
2013-08-10 02:56:00,53.7,51.1,30.06,NW,313,0.0,0.0,91,0.00,,---,0.00,0.00,VWS V14.01,2013-08-10 07:56:00,
2013-08-10 03:00:00,53.7,51.1,30.06,NW,313,0.0,0.0,91,0.00,,---,0.00,0.00,VWS V14.01,2013-08-10 08:00:00,
2013-08-10 03:01:00,53.6,51.0,30.06,NW,313,0.0,0.0,91,0.00,,---,0.00,0.00,VWS V14.01,2013-08-10 08:01:00,
2013-08-10 03:06:00,53.5,50.9,30.06,NW,313,0.0,0.0,91,0.00,,---,0.00,0.00,VWS V14.01,2013-08-10 08:06:00,
2013-08-10 03:11:00,53.4,50.8,30.07,NW,313,0.0,0.0,91,0.00,,---,0.00,0.00,VWS V14.01,2013-08-10 08:11:00,
2013-08-10 03:16:00,53.3,50.7,30.07,NW,313,0.0,0.0,91,0.00,,---,0.00,0.00,VWS V14.01,2013-08-10 08:16:00,
2013-08-10 03:21:00,53.1,50.5,30.07,NW,313,0.0,0.0,91,0.00,,---,0.00,0.00,VWS V14.01,2013-08-10 08:21:00,
2013-08-10 03:26:00,53.0,50.5,30.07,NW,313,0.0,0.0,91,0.00,,---,0.00,0.00,VWS V14.01,2013-08-10 08:26:00,
2013-08-10 03:31:00,52.9,50.3,30.07,NW,313,0.0,1.0,91,0.00,,---,0.00,0.00,VWS V14.01,2013-08-10 08:31:00,
2013-08-10 03:36:00,52.8,50.2,30.07,NW,313,0.0,1.0,91,0.00,,---,0.00,0.00,VWS V14.01,2013-08-10 08:36:00,
2013-08-10 03:41:00,52.6,50.0,30.07,NW,313,0.0,1.0,91,0.00,,---,0.00,0.00,VWS V14.01,2013-08-10 08:41:00,
2013-08-10 03:46:00,52.5,50.0,30.07,NW,313,0.0,1.0,91,0.00,,---,0.00,0.00,VWS V14.01,2013-08-10 08:46:00,
2013-08-10 03:51:00,52.4,50.2,30.07,NW,313,0.0,1.0,92,0.00,,---,0.00,0.00,VWS V14.01,2013-08-10 08:51:00,
2013-08-10 03:56:00,52.4,50.2,30.07,NW,313,0.0,1.0,92,0.00,,---,0.00,0.00,VWS V14.01,2013-08-10 08:56:00,
2013-08-10 04:00:00,52.3,50.0,30.07,NW,313,0.0,1.0,92,0.00,,---,0.00,0.00,VWS V14.01,2013-08-10 09:00:00,
2013-08-10 04:01:00,52.2,50.0,30.07,NW,313,0.0,0.0,92,0.00,,---,0.00,0.00,VWS V14.01,2013-08-10 09:01:00,
2013-08-10 04:06:00,52.1,49.8,30.07,NW,313,0.0,0.0,92,0.00,,---,0.00,0.00,VWS V14.01,2013-08-10 09:06:00,
2013-08-10 04:11:00,52.0,49.8,30.07,NW,313,0.0,0.0,92,0.00,,---,0.00,0.00,VWS V14.01,2013-08-10 09:11:00,
2013-08-10 04:16:00,51.8,49.5,30.07,NW,313,0.0,0.0,92,0.00,,---,0.00,0.00,VWS V14.01,2013-08-10 09:16:00,
2013-08-10 04:21:00,51.5,49.3,30.07,NW,313,0.0,0.0,92,0.00,,---,0.00,0.00,VWS V14.01,2013-08-10 09:21:00,
2013-08-10 04:26:00,51.4,49.2,30.08,NW,313,0.0,0.0,92,0.00,,---,0.00,0.00,VWS V14.01,2013-08-10 09:26:00,
2013-08-10 04:31:00,51.3,49.1,30.08,NW,313,0.0,0.0,92,0.00,,---,0.00,0.00,VWS V14.01,2013-08-10 09:31:00,
2013-08-10 04:36:00,51.1,48.9,30.08,NW,313,0.0,0.0,92,0.00,,---,0.00,0.00,VWS V14.01,2013-08-10 09:36:00,
2013-08-10 04:41:00,50.9,48.7,30.08,NW,313,0.0,0.0,92,0.00,,---,0.00,0.00,VWS V14.01,2013-08-10 09:41:00,
2013-08-10 04:46:00,50.8,48.6,30.08,NW,313,0.0,0.0,92,0.00,,---,0.00,0.00,VWS V14.01,2013-08-10 09:46:00,
2013-08-10 04:51:00,50.6,48.4,30.08,NW,313,0.0,0.0,92,0.00,,---,0.00,0.00,VWS V14.01,2013-08-10 09:51:00,
2013-08-10 04:56:00,50.6,48.4,30.08,NW,313,0.0,0.0,92,0.00,,---,0.00,0.00,VWS V14.01,2013-08-10 09:56:00,
2013-08-10 05:00:00,50.5,48.3,30.08,NW,313,0.0,0.0,92,0.00,,---,0.00,0.00,VWS V14.01,2013-08-10 10:00:00,
2013-08-10 05:01:00,50.5,48.3,30.08,NW,313,0.0,0.0,92,0.00,,---,0.00,0.00,VWS V14.01,2013-08-10 10:01:00,
2013-08-10 05:06:00,50.4,48.5,30.08,NW,313,0.0,0.0,93,0.00,,---,0.00,0.00,VWS V14.01,2013-08-10 10:06:00,
2013-08-10 05:11:00,50.4,48.5,30.08,NW,313,0.0,0.0,93,0.00,,---,0.00,0.00,VWS V14.01,2013-08-10 10:11:00,
2013-08-10 05:16:00,50.3,48.4,30.08,NW,313,0.0,0.0,93,0.00,,---,0.00,0.00,VWS V14.01,2013-08-10 10:16:00,
2013-08-10 05:21:00,50.3,48.4,30.09,NW,313,0.0,0.0,93,0.00,,---,0.00,0.00,VWS V14.01,2013-08-10 10:21:00,
2013-08-10 05:26:00,50.2,48.3,30.08,NW,313,0.0,0.0,93,0.00,,---,0.00,0.00,VWS V14.01,2013-08-10 10:26:00,
2013-08-10 05:31:00,50.1,48.2,30.08,NW,313,0.0,0.0,93,0.00,,---,0.00,0.00,VWS V14.01,2013-08-10 10:31:00,
2013-08-10 05:36:00,50.1,48.2,30.08,NW,313,0.0,0.0,93,0.00,,---,0.00,0.00,VWS V14.01,2013-08-10 10:36:00,
2013-08-10 05:41:00,50.1,48.2,30.08,NW,313,0.0,0.0,93,0.00,,---,0.00,0.00,VWS V14.01,2013-08-10 10:41:00,
2013-08-10 05:46:00,50.0,48.1,30.08,NW,313,0.0,0.0,93,0.00,,---,0.00,0.00,VWS V14.01,2013-08-10 10:46:00,
2013-08-10 05:51:00,49.9,48.0,30.08,NW,313,0.0,0.0,93,0.00,,---,0.00,0.00,VWS V14.01,2013-08-10 10:51:00,
2013-08-10 05:56:00,49.9,48.0,30.09,NW,313,0.0,0.0,93,0.00,,---,0.00,0.00,VWS V14.01,2013-08-10 10:56:00,
2013-08-10 06:00:00,49.8,47.9,30.09,NW,313,0.0,0.0,93,0.00,,---,0.00,0.00,VWS V14.01,2013-08-10 11:00:00,
2013-08-10 06:01:00,49.7,47.8,30.09,NW,313,0.0,0.0,93,0.00,,---,0.00,0.00,VWS V14.01,2013-08-10 11:01:00,
2013-08-10 06:06:00,49.5,47.6,30.09,NW,313,0.0,0.0,93,0.00,,---,0.00,0.00,VWS V14.01,2013-08-10 11:06:00,
2013-08-10 06:11:00,49.4,47.5,30.09,NW,313,0.0,0.0,93,0.00,,---,0.00,5.00,VWS V14.01,2013-08-10 11:11:00,
2013-08-10 06:16:00,49.3,47.4,30.09,NW,313,0.0,0.0,93,0.00,,---,0.00,7.00,VWS V14.01,2013-08-10 11:16:00,
2013-08-10 06:21:00,49.3,47.4,30.09,NW,313,0.0,0.0,93,0.00,,---,0.00,9.00,VWS V14.01,2013-08-10 11:21:00,
2013-08-10 06:26:00,49.4,47.5,30.09,NW,313,0.0,0.0,93,0.00,,---,0.00,12.00,VWS V14.01,2013-08-10 11:26:00,
2013-08-10 06:31:00,49.4,47.5,30.09,NW,313,0.0,0.0,93,0.00,,---,0.00,23.00,VWS V14.01,2013-08-10 11:31:00,
2013-08-10 06:36:00,49.4,47.8,30.09,NW,313,0.0,0.0,94,0.00,,---,0.00,33.00,VWS V14.01,2013-08-10 11:36:00,
2013-08-10 06:41:00,49.5,47.8,30.09,NW,313,0.0,0.0,94,0.00,,---,0.00,40.00,VWS V14.01,2013-08-10 11:41:00,
2013-08-10 06:46:00,49.7,48.0,30.09,NW,313,0.0,1.0,94,0.00,,---,0.00,32.00,VWS V14.01,2013-08-10 11:46:00,
2013-08-10 06:51:00,49.8,48.2,30.09,NW,313,0.0,1.0,94,0.00,,---,0.00,39.00,VWS V14.01,2013-08-10 11:51:00,
2013-08-10 06:56:00,49.9,48.2,30.09,NW,313,0.0,1.0,94,0.00,,---,0.00,37.00,VWS V14.01,2013-08-10 11:56:00,
2013-08-10 07:00:00,49.9,48.2,30.09,NW,313,0.0,1.0,94,0.00,,---,0.00,35.00,VWS V14.01,2013-08-10 12:00:00,
2013-08-10 07:01:00,50.0,48.3,30.09,NW,313,0.0,0.0,94,0.00,,---,0.00,39.00,VWS V14.01,2013-08-10 12:01:00,
2013-08-10 07:06:00,50.2,48.8,30.09,NW,313,0.0,0.0,95,0.00,,---,0.00,39.00,VWS V14.01,2013-08-10 12:06:00,
2013-08-10 07:11:00,50.5,49.1,30.09,NW,313,0.0,0.0,95,0.00,,---,0.00,46.00,VWS V14.01,2013-08-10 12:11:00,
2013-08-10 07:16:00,50.7,49.3,30.09,NW,313,0.0,0.0,95,0.00,,---,0.00,46.00,VWS V14.01,2013-08-10 12:16:00,
2013-08-10 07:21:00,50.9,49.5,30.10,NW,313,0.0,0.0,95,0.00,,---,0.00,46.00,VWS V14.01,2013-08-10 12:21:00,
2013-08-10 07:26:00,51.2,49.8,30.10,NW,313,0.0,0.0,95,0.00,,---,0.00,44.00,VWS V14.01,2013-08-10 12:26:00,
2013-08-10 07:31:00,51.6,50.5,30.09,NW,313,0.0,0.0,96,0.00,,---,0.00,44.00,VWS V14.01,2013-08-10 12:31:00,
2013-08-10 07:36:00,51.9,50.8,30.09,NW,313,1.0,1.0,96,0.00,,---,0.00,60.00,VWS V14.01,2013-08-10 12:36:00,
2013-08-10 07:41:00,52.4,51.3,30.10,NNW,332,2.0,2.0,96,0.00,,---,0.00,121.00,VWS V14.01,2013-08-10 12:41:00,
2013-08-10 07:46:00,52.9,51.8,30.10,NNW,331,0.0,2.0,96,0.00,,---,0.00,113.00,VWS V14.01,2013-08-10 12:46:00,
2013-08-10 07:51:00,53.2,52.1,30.10,NNW,331,1.0,2.0,96,0.00,,---,0.00,116.00,VWS V14.01,2013-08-10 12:51:00,
2013-08-10 07:56:00,53.6,52.5,30.10,NNW,331,1.0,2.0,96,0.00,,---,0.00,206.00,VWS V14.01,2013-08-10 12:56:00,
2013-08-10 08:00:00,53.9,52.8,30.10,NNW,331,1.0,2.0,96,0.00,,---,0.00,181.00,VWS V14.01,2013-08-10 13:00:00,
2013-08-10 08:01:00,54.2,53.1,30.10,NNW,331,0.0,2.0,96,0.00,,---,0.00,281.00,VWS V14.01,2013-08-10 13:01:00,
2013-08-10 08:06:00,54.6,53.5,30.10,NNW,331,0.0,2.0,96,0.00,,---,0.00,295.00,VWS V14.01,2013-08-10 13:06:00,
2013-08-10 08:11:00,55.4,54.3,30.10,SSW,211,0.0,3.0,96,0.00,,---,0.00,313.00,VWS V14.01,2013-08-10 13:11:00,
2013-08-10 08:16:00,56.0,54.9,30.10,SSW,212,1.0,3.0,96,0.00,,---,0.00,330.00,VWS V14.01,2013-08-10 13:16:00,
2013-08-10 08:21:00,56.6,55.5,30.10,WNW,283,0.0,3.0,96,0.00,,---,0.00,348.00,VWS V14.01,2013-08-10 13:21:00,
2013-08-10 08:26:00,57.2,56.4,30.10,WNW,285,0.0,3.0,97,0.00,,---,0.00,362.00,VWS V14.01,2013-08-10 13:26:00,
2013-08-10 08:31:00,57.9,56.8,30.10,WNW,285,0.0,3.0,96,0.00,,---,0.00,385.00,VWS V14.01,2013-08-10 13:31:00,
2013-08-10 08:36:00,58.6,57.5,30.10,WNW,285,0.0,3.0,96,0.00,,---,0.00,403.00,VWS V14.01,2013-08-10 13:36:00,
2013-08-10 08:41:00,59.3,58.2,30.10,WNW,285,1.0,3.0,96,0.00,,---,0.00,422.00,VWS V14.01,2013-08-10 13:41:00,
2013-08-10 08:46:00,60.3,58.6,30.10,North,9,2.0,3.0,94,0.00,,---,0.00,445.00,VWS V14.01,2013-08-10 13:46:00,
2013-08-10 08:51:00,61.4,59.1,30.10,NNE,31,0.0,3.0,92,0.00,,---,0.00,457.00,VWS V14.01,2013-08-10 13:51:00,
2013-08-10 08:56:00,62.2,58.6,30.10,North,360,0.0,3.0,88,0.00,,---,0.00,473.00,VWS V14.01,2013-08-10 13:56:00,
2013-08-10 09:00:00,62.7,58.8,30.10,North,360,0.0,3.0,87,0.00,,---,0.00,475.00,VWS V14.01,2013-08-10 14:00:00,
2013-08-10 09:01:00,63.5,59.2,30.10,North,360,0.0,1.0,86,0.00,,---,0.00,462.00,VWS V14.01,2013-08-10 14:01:00,
2013-08-10 09:06:00,64.3,58.3,30.10,North,360,0.0,3.0,81,0.00,,---,0.00,485.00,VWS V14.01,2013-08-10 14:06:00,
2013-08-10 09:11:00,65.0,58.3,30.10,North,360,0.0,3.0,79,0.00,,---,0.00,489.00,VWS V14.01,2013-08-10 14:11:00,
2013-08-10 09:16:00,65.9,59.2,30.10,North,360,0.0,3.0,79,0.00,,---,0.00,545.00,VWS V14.01,2013-08-10 14:16:00,
2013-08-10 09:21:00,66.5,58.7,30.10,NNW,346,1.0,3.0,76,0.00,,---,0.00,548.00,VWS V14.01,2013-08-10 14:21:00,
2013-08-10 09:26:00,67.4,59.2,30.10,NE,49,0.0,3.0,75,0.00,,---,0.00,548.00,VWS V14.01,2013-08-10 14:26:00,
2013-08-10 09:31:00,68.1,59.1,30.10,NW,312,1.0,3.0,73,0.00,,---,0.00,578.00,VWS V14.01,2013-08-10 14:31:00,
2013-08-10 09:36:00,68.3,58.5,30.10,NE,34,3.0,4.0,71,0.00,,---,0.00,601.00,VWS V14.01,2013-08-10 14:36:00,
2013-08-10 09:41:00,68.9,58.7,30.11,NE,34,0.0,4.0,70,0.00,,---,0.00,592.00,VWS V14.01,2013-08-10 14:41:00,
2013-08-10 09:46:00,69.0,58.8,30.11,NE,34,0.0,4.0,70,0.00,,---,0.00,638.00,VWS V14.01,2013-08-10 14:46:00,
2013-08-10 09:51:00,69.8,58.8,30.11,ENE,67,0.0,4.0,68,0.00,,---,0.00,635.00,VWS V14.01,2013-08-10 14:51:00,
2013-08-10 09:56:00,70.4,56.8,30.11,ENE,57,0.0,4.0,62,0.00,,---,0.00,494.00,VWS V14.01,2013-08-10 14:56:00,
2013-08-10 10:00:00,69.7,57.4,30.11,ESE,112,1.0,4.0,65,0.00,,---,0.00,517.00,VWS V14.01,2013-08-10 15:00:00,
2013-08-10 10:01:00,69.2,57.8,30.11,SE,145,1.0,3.0,67,0.00,,---,0.00,517.00,VWS V14.01,2013-08-10 15:01:00,
2013-08-10 10:06:00,69.9,58.9,30.11,SW,219,0.0,3.0,68,0.00,,---,0.00,698.00,VWS V14.01,2013-08-10 15:06:00,
2013-08-10 10:11:00,71.2,59.3,30.11,NW,323,0.0,3.0,66,0.00,,---,0.00,698.00,VWS V14.01,2013-08-10 15:11:00,
2013-08-10 10:16:00,72.1,58.4,30.11,North,360,1.0,3.0,62,0.00,,---,0.00,714.00,VWS V14.01,2013-08-10 15:16:00,
2013-08-10 10:21:00,71.7,56.6,30.11,ENE,74,0.0,3.0,59,0.00,,---,0.00,700.00,VWS V14.01,2013-08-10 15:21:00,
2013-08-10 10:26:00,71.3,56.2,30.11,NNW,329,0.0,5.0,59,0.00,,---,0.00,717.00,VWS V14.01,2013-08-10 15:26:00,
2013-08-10 10:31:00,72.1,56.0,30.11,North,5,2.0,5.0,57,0.00,,---,0.00,726.00,VWS V14.01,2013-08-10 15:31:00,
2013-08-10 10:36:00,71.6,55.6,30.11,NNW,329,0.0,5.0,57,0.00,,---,0.00,737.00,VWS V14.01,2013-08-10 15:36:00,
2013-08-10 10:41:00,72.9,56.3,30.11,North,5,0.0,5.0,56,0.00,,---,0.00,749.00,VWS V14.01,2013-08-10 15:41:00,
2013-08-10 10:46:00,74.0,56.8,30.11,SSW,200,0.0,5.0,55,0.00,,---,0.00,766.00,VWS V14.01,2013-08-10 15:46:00,
2013-08-10 10:51:00,74.4,55.7,30.11,East,80,1.0,5.0,52,0.00,,---,0.00,782.00,VWS V14.01,2013-08-10 15:51:00,
2013-08-10 10:56:00,74.5,56.8,30.11,NNW,338,3.0,5.0,54,0.00,,---,0.00,807.00,VWS V14.01,2013-08-10 15:56:00,
2013-08-10 11:00:00,74.0,55.3,30.11,North,355,2.0,5.0,52,0.00,,---,0.00,812.00,VWS V14.01,2013-08-10 16:00:00,
2013-08-10 11:01:00,73.7,56.5,30.11,NNE,28,1.0,3.0,55,0.00,,---,0.00,831.00,VWS V14.01,2013-08-10 16:01:00,
2013-08-10 11:06:00,73.6,56.5,30.12,NNW,328,1.0,7.0,55,0.00,,---,0.00,856.00,VWS V14.01,2013-08-10 16:06:00,
2013-08-10 11:11:00,72.8,55.2,30.12,NNW,329,2.0,7.0,54,0.00,,---,0.00,891.00,VWS V14.01,2013-08-10 16:11:00,
2013-08-10 11:16:00,73.6,56.0,30.12,North,11,1.0,7.0,54,0.00,,---,0.00,190.00,VWS V14.01,2013-08-10 16:16:00,
2013-08-10 11:21:00,73.0,55.9,30.12,WNW,296,0.0,7.0,55,0.00,,---,0.00,190.00,VWS V14.01,2013-08-10 16:21:00,
2013-08-10 11:26:00,73.3,55.7,30.12,North,9,1.0,7.0,54,0.00,,---,0.00,141.00,VWS V14.01,2013-08-10 16:26:00,
2013-08-10 11:31:00,73.5,56.9,30.12,North,9,1.0,7.0,56,0.00,,---,0.00,958.00,VWS V14.01,2013-08-10 16:31:00,
2013-08-10 11:36:00,74.6,56.4,30.11,ENE,66,2.0,7.0,53,0.00,,---,0.00,1039.00,VWS V14.01,2013-08-10 16:36:00,
2013-08-10 11:41:00,74.4,55.7,30.11,North,360,2.0,7.0,52,0.00,,---,0.00,265.00,VWS V14.01,2013-08-10 16:41:00,
2013-08-10 11:46:00,74.4,56.2,30.12,NE,52,0.0,7.0,53,0.00,,---,0.00,230.00,VWS V14.01,2013-08-10 16:46:00,
2013-08-10 11:51:00,73.9,55.7,30.12,NE,38,0.0,7.0,53,0.00,,---,0.00,216.00,VWS V14.01,2013-08-10 16:51:00,
2013-08-10 11:56:00,73.2,56.1,30.12,NW,304,1.0,7.0,55,0.00,,---,0.00,239.00,VWS V14.01,2013-08-10 16:56:00,
2013-08-10 12:00:00,72.8,56.2,30.12,NW,304,0.0,7.0,56,0.00,,---,0.00,250.00,VWS V14.01,2013-08-10 17:00:00,
2013-08-10 12:01:00,72.8,57.2,30.11,NW,306,0.0,1.0,58,0.00,,---,0.00,276.00,VWS V14.01,2013-08-10 17:01:00,
2013-08-10 12:06:00,73.0,56.4,30.11,NW,306,0.0,1.0,56,0.00,,---,0.00,322.00,VWS V14.01,2013-08-10 17:06:00,
2013-08-10 12:11:00,72.9,58.2,30.11,NNW,330,0.0,3.0,60,0.00,,---,0.00,378.00,VWS V14.01,2013-08-10 17:11:00,
2013-08-10 12:16:00,73.1,58.4,30.11,West,275,3.0,3.0,60,0.00,,---,0.00,392.00,VWS V14.01,2013-08-10 17:16:00,
2013-08-10 12:21:00,72.5,57.8,30.11,SW,217,0.0,3.0,60,0.00,,---,0.00,1065.00,VWS V14.01,2013-08-10 17:21:00,
2013-08-10 12:26:00,74.6,58.9,30.11,WNW,300,2.0,4.0,58,0.00,,---,0.00,998.00,VWS V14.01,2013-08-10 17:26:00,
2013-08-10 12:31:00,74.2,57.0,30.11,NW,304,0.0,4.0,55,0.00,,---,0.00,1172.00,VWS V14.01,2013-08-10 17:31:00,
2013-08-10 12:36:00,74.7,57.5,30.11,SW,216,1.0,5.0,55,0.00,,---,0.00,1266.00,VWS V14.01,2013-08-10 17:36:00,
2013-08-10 12:41:00,74.9,55.6,30.11,NNW,347,1.0,5.0,51,0.00,,---,0.00,1206.00,VWS V14.01,2013-08-10 17:41:00,
2013-08-10 12:46:00,74.9,56.1,30.11,North,360,0.0,5.0,52,0.00,,---,0.00,420.00,VWS V14.01,2013-08-10 17:46:00,
2013-08-10 12:51:00,74.8,56.5,30.11,NE,49,1.0,5.0,53,0.00,,---,0.00,359.00,VWS V14.01,2013-08-10 17:51:00,
2013-08-10 12:56:00,74.2,56.5,30.11,NW,306,1.0,5.0,54,0.00,,---,0.00,304.00,VWS V14.01,2013-08-10 17:56:00,
2013-08-10 13:00:00,74.2,56.5,30.11,NW,318,1.0,5.0,54,0.00,,---,0.00,281.00,VWS V14.01,2013-08-10 18:00:00,
2013-08-10 13:01:00,73.9,55.7,30.11,North,9,0.0,4.0,53,0.00,,---,0.00,285.00,VWS V14.01,2013-08-10 18:01:00,
2013-08-10 13:06:00,73.2,56.1,30.11,NNW,338,1.0,4.0,55,0.00,,---,0.00,338.00,VWS V14.01,2013-08-10 18:06:00,
2013-08-10 13:11:00,73.7,56.5,30.11,South,188,2.0,5.0,55,0.00,,---,0.00,364.00,VWS V14.01,2013-08-10 18:11:00,
2013-08-10 13:16:00,73.3,56.2,30.11,East,95,1.0,5.0,55,0.00,,---,0.00,388.00,VWS V14.01,2013-08-10 18:16:00,
2013-08-10 13:21:00,73.3,54.6,30.11,NW,321,0.0,5.0,52,0.00,,---,0.00,438.00,VWS V14.01,2013-08-10 18:21:00,
2013-08-10 13:26:00,73.2,55.1,30.11,NNW,333,0.0,6.0,53,0.00,,---,0.00,613.00,VWS V14.01,2013-08-10 18:26:00,
2013-08-10 13:31:00,74.1,54.8,30.11,West,277,2.0,6.0,51,0.00,,---,0.00,967.00,VWS V14.01,2013-08-10 18:31:00,
2013-08-10 13:36:00,74.4,54.6,30.11,WNW,289,0.0,6.0,50,0.00,,---,0.00,469.00,VWS V14.01,2013-08-10 18:36:00,
2013-08-10 13:41:00,74.4,55.1,30.11,NNW,345,1.0,6.0,51,0.00,,---,0.00,466.00,VWS V14.01,2013-08-10 18:41:00,
2013-08-10 13:46:00,74.5,57.3,30.11,North,5,0.0,6.0,55,0.00,,---,0.00,499.00,VWS V14.01,2013-08-10 18:46:00,
2013-08-10 13:51:00,73.9,55.7,30.11,SSW,213,4.0,6.0,53,0.00,,---,0.00,492.00,VWS V14.01,2013-08-10 18:51:00,
2013-08-10 13:56:00,73.9,57.7,30.11,WSW,239,2.0,6.0,57,0.00,,---,0.00,457.00,VWS V14.01,2013-08-10 18:56:00,
2013-08-10 14:00:00,73.8,56.1,30.11,WSW,247,2.0,6.0,54,0.00,,---,0.00,434.00,VWS V14.01,2013-08-10 19:00:00,
2013-08-10 14:01:00,73.9,56.7,30.11,SW,218,1.0,4.0,55,0.00,,---,0.00,445.00,VWS V14.01,2013-08-10 19:01:00,
2013-08-10 14:06:00,73.7,54.5,30.11,NW,311,0.0,4.0,51,0.00,,---,0.00,478.00,VWS V14.01,2013-08-10 19:06:00,
2013-08-10 14:11:00,73.9,56.2,30.11,West,281,0.0,4.0,54,0.00,,---,0.00,536.00,VWS V14.01,2013-08-10 19:11:00,
2013-08-10 14:16:00,74.3,57.1,30.11,West,275,2.0,4.0,55,0.00,,---,0.00,570.00,VWS V14.01,2013-08-10 19:16:00,
2013-08-10 14:21:00,74.6,54.2,30.11,SW,236,1.0,5.0,49,0.00,,---,0.00,566.00,VWS V14.01,2013-08-10 19:21:00,
2013-08-10 14:26:00,75.1,56.3,30.11,SW,217,2.0,5.0,52,0.00,,---,0.00,819.00,VWS V14.01,2013-08-10 19:26:00,
2013-08-10 14:31:00,75.3,55.4,30.10,WNW,292,1.0,5.0,50,0.00,,---,0.00,459.00,VWS V14.01,2013-08-10 19:31:00,
2013-08-10 14:36:00,74.3,54.5,30.11,West,277,2.0,6.0,50,0.00,,---,0.00,457.00,VWS V14.01,2013-08-10 19:36:00,
2013-08-10 14:41:00,74.0,55.3,30.10,NNW,343,4.0,6.0,52,0.00,,---,0.00,432.00,VWS V14.01,2013-08-10 19:41:00,
2013-08-10 14:46:00,74.2,55.5,30.10,North,355,1.0,6.0,52,0.00,,---,0.00,522.00,VWS V14.01,2013-08-10 19:46:00,
2013-08-10 14:51:00,75.7,55.2,30.10,NE,42,1.0,6.0,49,0.00,,---,0.00,759.00,VWS V14.01,2013-08-10 19:51:00,
2013-08-10 14:56:00,75.5,55.0,30.10,NW,313,1.0,6.0,49,0.00,,---,0.00,977.00,VWS V14.01,2013-08-10 19:56:00,
2013-08-10 15:00:00,75.7,55.2,30.10,SW,224,3.0,6.0,49,0.00,,---,0.00,977.00,VWS V14.01,2013-08-10 20:00:00,
2013-08-10 15:01:00,75.8,54.2,30.10,NW,325,1.0,4.0,47,0.00,,---,0.00,265.00,VWS V14.01,2013-08-10 20:01:00,
2013-08-10 15:06:00,75.7,54.6,30.09,North,350,3.0,4.0,48,0.00,,---,0.00,923.00,VWS V14.01,2013-08-10 20:06:00,
2013-08-10 15:11:00,76.0,54.9,30.09,NNW,348,0.0,6.0,48,0.00,,---,0.00,958.00,VWS V14.01,2013-08-10 20:11:00,
2013-08-10 15:16:00,75.7,55.2,30.10,NNW,343,2.0,6.0,49,0.00,,---,0.00,394.00,VWS V14.01,2013-08-10 20:16:00,
2013-08-10 15:21:00,77.3,56.7,30.09,NNW,331,3.0,6.0,49,0.00,,---,0.00,881.00,VWS V14.01,2013-08-10 20:21:00,
2013-08-10 15:26:00,76.3,54.0,30.09,NNW,340,3.0,6.0,46,0.00,,---,0.00,313.00,VWS V14.01,2013-08-10 20:26:00,
2013-08-10 15:31:00,75.3,53.7,30.09,NNW,335,3.0,6.0,47,0.00,,---,0.00,904.00,VWS V14.01,2013-08-10 20:31:00,
2013-08-10 15:36:00,77.2,56.0,30.09,NE,44,1.0,6.0,48,0.00,,---,0.00,768.00,VWS V14.01,2013-08-10 20:36:00,
2013-08-10 15:41:00,76.6,54.9,30.09,WSW,252,1.0,7.0,47,0.00,,---,0.00,768.00,VWS V14.01,2013-08-10 20:41:00,
2013-08-10 15:46:00,76.8,56.2,30.09,SSW,203,2.0,7.0,49,0.00,,---,0.00,283.00,VWS V14.01,2013-08-10 20:46:00,
2013-08-10 15:51:00,76.1,55.6,30.09,North,5,1.0,7.0,49,0.00,,---,0.00,299.00,VWS V14.01,2013-08-10 20:51:00,
2013-08-10 15:56:00,74.9,55.6,30.09,North,355,2.0,7.0,51,0.00,,---,0.00,501.00,VWS V14.01,2013-08-10 20:56:00,
2013-08-10 16:00:00,74.9,56.1,30.09,NNE,12,1.0,7.0,52,0.00,,---,0.00,267.00,VWS V14.01,2013-08-10 21:00:00,
2013-08-10 16:01:00,75.6,56.2,30.09,East,98,0.0,2.0,51,0.00,,---,0.00,313.00,VWS V14.01,2013-08-10 21:01:00,
2013-08-10 16:06:00,74.7,55.4,30.09,North,5,0.0,3.0,51,0.00,,---,0.00,397.00,VWS V14.01,2013-08-10 21:06:00,
2013-08-10 16:11:00,75.0,55.7,30.09,NNW,330,3.0,4.0,51,0.00,,---,0.00,336.00,VWS V14.01,2013-08-10 21:11:00,
2013-08-10 16:16:00,74.2,56.0,30.08,NNW,329,2.0,4.0,53,0.00,,---,0.00,422.00,VWS V14.01,2013-08-10 21:16:00,
2013-08-10 16:21:00,74.8,56.5,30.08,West,261,3.0,4.0,53,0.00,,---,0.00,729.00,VWS V14.01,2013-08-10 21:21:00,
2013-08-10 16:26:00,75.5,56.1,30.08,SW,215,1.0,4.0,51,0.00,,---,0.00,401.00,VWS V14.01,2013-08-10 21:26:00,
2013-08-10 16:31:00,76.2,56.8,30.08,South,186,1.0,4.0,51,0.00,,---,0.00,652.00,VWS V14.01,2013-08-10 21:31:00,
2013-08-10 16:36:00,76.2,56.2,30.08,SSW,194,4.0,5.0,50,0.00,,---,0.00,636.00,VWS V14.01,2013-08-10 21:36:00,
2013-08-10 16:41:00,76.0,56.0,30.08,SW,228,2.0,7.0,50,0.00,,---,0.00,552.00,VWS V14.01,2013-08-10 21:41:00,
2013-08-10 16:46:00,76.3,55.2,30.08,WNW,290,1.0,7.0,48,0.00,,---,0.00,694.00,VWS V14.01,2013-08-10 21:46:00,
2013-08-10 16:52:00,75.3,54.8,30.08,NW,321,2.0,7.0,49,0.00,,---,0.00,288.00,VWS V14.01,2013-08-10 21:52:00,
2013-08-10 16:57:00,75.3,55.9,30.07,NW,306,2.0,7.0,51,0.00,,---,0.00,635.00,VWS V14.01,2013-08-10 21:57:00,
2013-08-10 17:00:00,75.7,56.3,30.07,West,269,3.0,7.0,51,0.00,,---,0.00,587.00,VWS V14.01,2013-08-10 22:00:00,
2013-08-10 17:02:00,76.1,56.1,30.07,WNW,302,0.0,3.0,50,0.00,,---,0.00,566.00,VWS V14.01,2013-08-10 22:02:00,
2013-08-10 17:07:00,75.3,55.9,30.07,SSW,212,1.0,3.0,51,0.00,,---,0.00,130.00,VWS V14.01,2013-08-10 22:07:00,
2013-08-10 17:12:00,75.0,55.1,30.08,WNW,301,1.0,3.0,50,0.00,,---,0.00,195.00,VWS V14.01,2013-08-10 22:12:00,
2013-08-10 17:17:00,74.4,56.7,30.07,WNW,301,1.0,3.0,54,0.00,,---,0.00,130.00,VWS V14.01,2013-08-10 22:17:00,
2013-08-10 17:22:00,74.4,55.7,30.07,NNW,328,2.0,4.0,52,0.00,,---,0.00,545.00,VWS V14.01,2013-08-10 22:22:00,
2013-08-10 17:27:00,74.8,55.5,30.07,WNW,301,0.0,4.0,51,0.00,,---,0.00,497.00,VWS V14.01,2013-08-10 22:27:00,
2013-08-10 17:32:00,75.3,55.9,30.07,West,260,0.0,4.0,51,0.00,,---,0.00,471.00,VWS V14.01,2013-08-10 22:32:00,
2013-08-10 17:37:00,75.7,55.2,30.07,NE,43,2.0,4.0,49,0.00,,---,0.00,455.00,VWS V14.01,2013-08-10 22:37:00,
2013-08-10 17:42:00,75.1,54.7,30.07,West,266,1.0,4.0,49,0.00,,---,0.00,452.00,VWS V14.01,2013-08-10 22:42:00,
2013-08-10 17:47:00,74.7,55.4,30.07,NNW,341,1.0,4.0,51,0.00,,---,0.00,225.00,VWS V14.01,2013-08-10 22:47:00,
2013-08-10 17:52:00,75.1,56.3,30.07,North,355,2.0,4.0,52,0.00,,---,0.00,88.00,VWS V14.01,2013-08-10 22:52:00,
2013-08-10 17:57:00,75.0,56.2,30.07,NNW,332,1.0,4.0,52,0.00,,---,0.00,91.00,VWS V14.01,2013-08-10 22:57:00,
2013-08-10 18:00:00,74.6,55.3,30.07,NNW,333,3.0,4.0,51,0.00,,---,0.00,130.00,VWS V14.01,2013-08-10 23:00:00,
2013-08-10 18:02:00,73.9,55.2,30.07,NNW,344,4.0,4.0,52,0.00,,---,0.00,364.00,VWS V14.01,2013-08-10 23:02:00,
2013-08-10 18:07:00,74.1,55.4,30.07,NW,319,3.0,4.0,52,0.00,,---,0.00,418.00,VWS V14.01,2013-08-10 23:07:00,
2013-08-10 18:12:00,74.1,54.3,30.07,NNW,346,5.0,5.0,50,0.00,,---,0.00,366.00,VWS V14.01,2013-08-10 23:12:00,
2013-08-10 18:17:00,74.6,55.8,30.07,North,355,0.0,5.0,52,0.00,,---,0.00,322.00,VWS V14.01,2013-08-10 23:17:00,
2013-08-10 18:22:00,74.5,56.3,30.07,North,355,0.0,5.0,53,0.00,,---,0.00,176.00,VWS V14.01,2013-08-10 23:22:00,
2013-08-10 18:27:00,74.3,55.0,30.07,North,355,0.0,5.0,51,0.00,,---,0.00,54.00,VWS V14.01,2013-08-10 23:27:00,
2013-08-10 18:32:00,73.9,55.7,30.07,NNW,342,0.0,5.0,53,0.00,,---,0.00,70.00,VWS V14.01,2013-08-10 23:32:00,
2013-08-10 18:37:00,73.4,55.8,30.07,NNW,342,0.0,5.0,54,0.00,,---,0.00,97.00,VWS V14.01,2013-08-10 23:37:00,
2013-08-10 18:42:00,73.3,56.7,30.06,NNW,342,0.0,5.0,56,0.00,,---,0.00,120.00,VWS V14.01,2013-08-10 23:42:00,
2013-08-10 18:47:00,73.4,55.2,30.06,NNW,329,1.0,5.0,53,0.00,,---,0.00,63.00,VWS V14.01,2013-08-10 23:47:00,
2013-08-10 18:52:00,73.3,55.7,30.06,North,355,1.0,5.0,54,0.00,,---,0.00,47.00,VWS V14.01,2013-08-10 23:52:00,
2013-08-10 18:57:00,73.1,55.5,30.07,NNW,340,0.0,5.0,54,0.00,,---,0.00,44.00,VWS V14.01,2013-08-10 23:57:00,
2013-08-10 19:00:00,73.1,56.0,30.07,NNW,340,0.0,5.0,55,0.00,,---,0.00,40.00,VWS V14.01,2013-08-11 00:00:00,
2013-08-10 19:02:00,73.0,55.9,30.07,NNW,340,0.0,2.0,55,0.00,,---,0.00,33.00,VWS V14.01,2013-08-11 00:02:00,
2013-08-10 19:07:00,72.8,56.7,30.07,NNW,340,0.0,2.0,57,0.00,,---,0.00,28.00,VWS V14.01,2013-08-11 00:07:00,
2013-08-10 19:12:00,72.4,56.8,30.07,NNW,340,0.0,2.0,58,0.00,,---,0.00,26.00,VWS V14.01,2013-08-11 00:12:00,
2013-08-10 19:17:00,72.1,56.0,30.07,NNW,340,0.0,2.0,57,0.00,,---,0.00,26.00,VWS V14.01,2013-08-11 00:17:00,
2013-08-10 19:22:00,71.7,56.6,30.07,NNW,340,0.0,2.0,59,0.00,,---,0.00,28.00,VWS V14.01,2013-08-11 00:22:00,
2013-08-10 19:27:00,71.2,57.1,30.06,NNW,340,0.0,2.0,61,0.00,,---,0.00,26.00,VWS V14.01,2013-08-11 00:27:00,
2013-08-10 19:32:00,70.6,57.4,30.06,NNW,340,0.0,2.0,63,0.00,,---,0.00,26.00,VWS V14.01,2013-08-11 00:32:00,
2013-08-10 19:37:00,70.3,57.6,30.06,NNW,340,0.0,2.0,64,0.00,,---,0.00,26.00,VWS V14.01,2013-08-11 00:37:00,
2013-08-10 19:42:00,70.1,58.2,30.06,NNW,340,0.0,2.0,66,0.00,,---,0.00,25.00,VWS V14.01,2013-08-11 00:42:00,
2013-08-10 19:47:00,69.8,58.8,30.06,NNW,340,0.0,2.0,68,0.00,,---,0.00,19.00,VWS V14.01,2013-08-11 00:47:00,
2013-08-10 19:52:00,69.2,59.0,30.06,NNW,340,0.0,2.0,70,0.00,,---,0.00,12.00,VWS V14.01,2013-08-11 00:52:00,
2013-08-10 19:57:00,68.8,58.2,30.06,NNW,340,0.0,2.0,69,0.00,,---,0.00,7.00,VWS V14.01,2013-08-11 00:57:00,
2013-08-10 20:00:00,68.6,58.0,30.06,NNW,340,0.0,2.0,69,0.00,,---,0.00,7.00,VWS V14.01,2013-08-11 01:00:00,
2013-08-10 20:02:00,68.4,58.2,30.06,NNW,340,0.0,0.0,70,0.00,,---,0.00,5.00,VWS V14.01,2013-08-11 01:02:00,
2013-08-10 20:07:00,67.9,58.5,30.07,NNW,340,0.0,0.0,72,0.00,,---,0.00,0.00,VWS V14.01,2013-08-11 01:07:00,
2013-08-10 20:12:00,67.3,58.4,30.07,NNW,340,0.0,0.0,73,0.00,,---,0.00,0.00,VWS V14.01,2013-08-11 01:12:00,
2013-08-10 20:17:00,66.7,58.5,30.07,NNW,340,0.0,1.0,75,0.00,,---,0.00,0.00,VWS V14.01,2013-08-11 01:17:00,
2013-08-10 20:22:00,66.3,58.5,30.07,NNW,340,0.0,1.0,76,0.00,,---,0.00,0.00,VWS V14.01,2013-08-11 01:22:00,
2013-08-10 20:27:00,66.0,58.6,30.06,NNW,340,0.0,1.0,77,0.00,,---,0.00,0.00,VWS V14.01,2013-08-11 01:27:00,
2013-08-10 20:32:00,65.7,58.7,30.07,NNW,340,0.0,1.0,78,0.00,,---,0.00,0.00,VWS V14.01,2013-08-11 01:32:00,
2013-08-10 20:37:00,65.5,58.5,30.07,NNW,340,0.0,1.0,78,0.00,,---,0.00,0.00,VWS V14.01,2013-08-11 01:37:00,
2013-08-10 20:42:00,65.2,58.2,30.07,NNW,340,0.0,1.0,78,0.00,,---,0.00,0.00,VWS V14.01,2013-08-11 01:42:00,
2013-08-10 20:47:00,65.0,58.0,30.07,NNW,340,0.0,1.0,78,0.00,,---,0.00,0.00,VWS V14.01,2013-08-11 01:47:00,
2013-08-10 20:52:00,64.7,58.0,30.07,NNW,340,0.0,1.0,79,0.00,,---,0.00,0.00,VWS V14.01,2013-08-11 01:52:00,
2013-08-10 20:57:00,64.3,57.7,30.07,NNW,340,0.0,1.0,79,0.00,,---,0.00,0.00,VWS V14.01,2013-08-11 01:57:00,
2013-08-10 21:00:00,64.1,57.8,30.07,NNW,340,0.0,1.0,80,0.00,,---,0.00,0.00,VWS V14.01,2013-08-11 02:00:00,
2013-08-10 21:02:00,63.8,57.9,30.07,NNW,340,0.0,0.0,81,0.00,,---,0.00,0.00,VWS V14.01,2013-08-11 02:02:00,
2013-08-10 21:07:00,63.2,57.3,30.07,NNW,340,1.0,1.0,81,0.00,,---,0.00,0.00,VWS V14.01,2013-08-11 02:07:00,
2013-08-10 21:12:00,62.9,57.0,30.08,NNW,340,0.0,1.0,81,0.00,,---,0.00,0.00,VWS V14.01,2013-08-11 02:12:00,
2013-08-10 21:17:00,62.6,57.0,30.08,NNW,340,0.0,1.0,82,0.00,,---,0.00,0.00,VWS V14.01,2013-08-11 02:17:00,
2013-08-10 21:22:00,62.3,56.7,30.08,NNW,340,0.0,1.0,82,0.00,,---,0.00,0.00,VWS V14.01,2013-08-11 02:22:00,
2013-08-10 21:27:00,62.1,56.5,30.07,NNW,340,0.0,1.0,82,0.00,,---,0.00,0.00,VWS V14.01,2013-08-11 02:27:00,
2013-08-10 21:32:00,61.8,56.6,30.07,NNW,340,0.0,1.0,83,0.00,,---,0.00,0.00,VWS V14.01,2013-08-11 02:32:00,
2013-08-10 21:37:00,61.5,56.3,30.07,NNW,340,0.0,1.0,83,0.00,,---,0.00,0.00,VWS V14.01,2013-08-11 02:37:00,
2013-08-10 21:42:00,61.1,55.9,30.07,NNW,340,0.0,1.0,83,0.00,,---,0.00,0.00,VWS V14.01,2013-08-11 02:42:00,
2013-08-10 21:47:00,60.7,55.8,30.08,NNW,340,0.0,1.0,84,0.00,,---,0.00,0.00,VWS V14.01,2013-08-11 02:47:00,
2013-08-10 21:52:00,60.3,55.8,30.07,NNW,340,0.0,1.0,85,0.00,,---,0.00,0.00,VWS V14.01,2013-08-11 02:52:00,
2013-08-10 21:57:00,60.0,55.5,30.07,NNW,340,0.0,1.0,85,0.00,,---,0.00,0.00,VWS V14.01,2013-08-11 02:57:00,
2013-08-10 22:00:00,60.0,55.5,30.07,NNW,340,0.0,1.0,85,0.00,,---,0.00,0.00,VWS V14.01,2013-08-11 03:00:00,
2013-08-10 22:02:00,59.8,55.3,30.07,NNW,340,0.0,0.0,85,0.00,,---,0.00,0.00,VWS V14.01,2013-08-11 03:02:00,
2013-08-10 22:07:00,59.6,55.1,30.07,NNW,340,0.0,0.0,85,0.00,,---,0.00,0.00,VWS V14.01,2013-08-11 03:07:00,
2013-08-10 22:12:00,59.4,55.2,30.07,NNW,340,0.0,0.0,86,0.00,,---,0.00,0.00,VWS V14.01,2013-08-11 03:12:00,
2013-08-10 22:17:00,59.2,55.0,30.07,NNW,340,0.0,0.0,86,0.00,,---,0.00,0.00,VWS V14.01,2013-08-11 03:17:00,
2013-08-10 22:22:00,58.9,54.7,30.07,NNW,340,0.0,0.0,86,0.00,,---,0.00,0.00,VWS V14.01,2013-08-11 03:22:00,
2013-08-10 22:27:00,58.6,54.8,30.07,NNW,340,0.0,0.0,87,0.00,,---,0.00,0.00,VWS V14.01,2013-08-11 03:27:00,
2013-08-10 22:33:00,58.2,54.4,30.07,NNW,340,0.0,1.0,87,0.00,,---,0.00,0.00,VWS V14.01,2013-08-11 03:33:00,
2013-08-10 22:38:00,57.8,54.0,30.07,NNW,340,0.0,1.0,87,0.00,,---,0.00,0.00,VWS V14.01,2013-08-11 03:38:00,
2013-08-10 22:43:00,57.5,54.0,30.07,NNW,340,0.0,1.0,88,0.00,,---,0.00,0.00,VWS V14.01,2013-08-11 03:43:00,
2013-08-10 22:48:00,57.3,53.8,30.06,NNW,340,0.0,1.0,88,0.00,,---,0.00,0.00,VWS V14.01,2013-08-11 03:48:00,
2013-08-10 22:53:00,57.2,53.7,30.06,NNW,340,0.0,1.0,88,0.00,,---,0.00,0.00,VWS V14.01,2013-08-11 03:53:00,
2013-08-10 22:58:00,57.1,53.6,30.06,NNW,340,0.0,1.0,88,0.00,,---,0.00,0.00,VWS V14.01,2013-08-11 03:58:00,
2013-08-10 23:00:00,57.0,53.5,30.06,NNW,340,0.0,1.0,88,0.00,,---,0.00,0.00,VWS V14.01,2013-08-11 04:00:00,
2013-08-10 23:01:00,57.0,53.5,30.06,NNW,340,0.0,0.0,88,0.00,,---,0.00,0.00,VWS V14.01,2013-08-11 04:01:00,
2013-08-10 23:06:00,56.9,53.4,30.07,NNW,340,0.0,0.0,88,0.00,,---,0.00,0.00,VWS V14.01,2013-08-11 04:06:00,
2013-08-10 23:11:00,56.7,53.2,30.07,NNW,340,0.0,0.0,88,0.00,,---,0.00,0.00,VWS V14.01,2013-08-11 04:11:00,
2013-08-10 23:16:00,56.4,53.2,30.07,NNW,340,0.0,0.0,89,0.00,,---,0.00,0.00,VWS V14.01,2013-08-11 04:16:00,
2013-08-10 23:21:00,56.2,53.0,30.07,NNW,340,0.0,0.0,89,0.00,,---,0.00,0.00,VWS V14.01,2013-08-11 04:21:00,
2013-08-10 23:26:00,56.1,52.9,30.07,NNW,340,0.0,0.0,89,0.00,,---,0.00,0.00,VWS V14.01,2013-08-11 04:26:00,
2013-08-10 23:31:00,55.9,52.7,30.07,NNW,340,0.0,0.0,89,0.00,,---,0.00,0.00,VWS V14.01,2013-08-11 04:31:00,
2013-08-10 23:36:00,55.8,52.6,30.07,NNW,340,0.0,0.0,89,0.00,,---,0.00,0.00,VWS V14.01,2013-08-11 04:36:00,
2013-08-10 23:41:00,55.6,52.4,30.07,NNW,340,0.0,0.0,89,0.00,,---,0.00,0.00,VWS V14.01,2013-08-11 04:41:00,
2013-08-10 23:46:00,55.5,52.3,30.07,NNW,340,0.0,0.0,89,0.00,,---,0.00,0.00,VWS V14.01,2013-08-11 04:46:00,
2013-08-10 23:51:00,55.3,52.1,30.07,NNW,340,0.0,0.0,89,0.00,,---,0.00,0.00,VWS V14.01,2013-08-11 04:51:00,
2013-08-10 23:56:00,55.1,51.9,30.07,NNW,340,0.0,0.0,89,0.00,,---,0.00,0.00,VWS V14.01,2013-08-11 04:56:00,